This is the latest recevied weather packets stored in our database for station/object KC1OHT-13. If no packets are shown the sender has not sent any weather packets the latest 1 day(s).
| Time | Temp. | Humidity | Pressure | Rain* | Wind** | Luminosity | Snow |
|---|---|---|---|---|---|---|---|
| 1778020718 | 21.11° C | 53% | 1005.4 hPa | 0 mm | 1.34 m/s, 12° | 65 W/m² | - |
| 1778020415 | 21.11° C | 53% | 1005.4 hPa | 0 mm | 1.79 m/s, 203° | 70 W/m² | - |
| 1778020111 | 21.67° C | 52% | 1005.1 hPa | 0 mm | 2.24 m/s, 187° | 74 W/m² | - |
| 1778019807 | 21.67° C | 51% | 1005.5 hPa | 0 mm | 1.79 m/s, 273° | 77 W/m² | - |
| 1778019504 | 21.67° C | 50% | 1005.4 hPa | 0 mm | 1.34 m/s, 17° | 78 W/m² | - |
| 1778019201 | 21.67° C | 51% | 1005.7 hPa | 0 mm | 1.79 m/s, 299° | 78 W/m² | - |
| 1778018898 | 21.67° C | 51% | 1005.5 hPa | 0 mm | 0.89 m/s, 29° | 77 W/m² | - |
| 1778018595 | 20.56° C | 56% | 1005.3 hPa | 0 mm | 0.89 m/s, 303° | 78 W/m² | - |
| 1778018293 | 20.56° C | 56% | 1005.3 hPa | 0 mm | 1.34 m/s, 146° | 79 W/m² | - |
| 1778017991 | 20° C | 56% | 1005.3 hPa | 0 mm | 0.89 m/s, 16° | 77 W/m² | - |
| 1778017688 | 20° C | 56% | 1005.3 hPa | 0 mm | 1.79 m/s, 105° | 75 W/m² | - |
| 1778017386 | 20.56° C | 56% | 1005.4 hPa | 0 mm | 1.34 m/s, 90° | 74 W/m² | - |
| 1778017083 | 20.56° C | 55% | 1005.5 hPa | 0 mm | 1.34 m/s, 182° | 167 W/m² | - |
| 1778016781 | 20.56° C | 55% | 1005.4 hPa | 0 mm | 1.34 m/s, 349° | 181 W/m² | - |
| 1778016475 | 20.56° C | 54% | 1005.4 hPa | 0 mm | 2.68 m/s, 168° | 215 W/m² | - |
| 1778016174 | 21.11° C | 53% | 1005.1 hPa | 0 mm | 0.89 m/s, 146° | 230 W/m² | - |
| 1778015870 | 21.11° C | 53% | 1005.2 hPa | 0 mm | 1.79 m/s, 119° | 249 W/m² | - |
| 1778015568 | 21.11° C | 53% | 1005.1 hPa | 0 mm | 1.79 m/s, 189° | 253 W/m² | - |
| 1778015263 | 21.11° C | 53% | 1005.1 hPa | 0 mm | 1.79 m/s, 141° | 294 W/m² | - |
| 1778014961 | 21.11° C | 53% | 1005.3 hPa | 0 mm | 2.68 m/s, 349° | 249 W/m² | - |
| 1778014658 | 21.11° C | 52% | 1005.3 hPa | 0 mm | 2.68 m/s, 253° | 282 W/m² | - |
| 1778014356 | 21.11° C | 53% | 1005.1 hPa | 0 mm | 2.24 m/s, 214° | 338 W/m² | - |
| 1778014052 | 20.56° C | 54% | 1005.1 hPa | 0 mm | 3.58 m/s, 179° | 326 W/m² | - |
| 1778013750 | 21.11° C | 54% | 1005.4 hPa | 0 mm | 1.34 m/s, 207° | 275 W/m² | - |
| 1778013447 | 21.67° C | 52% | 1005.3 hPa | 0 mm | 1.34 m/s, 25° | 300 W/m² | - |
* Rain latest hour (hover to see other rain measurements)
** Current wind speed in m/s (hover to see current wind gust speed)